Yozetty's sites:

title views votes rating creation
?Shooting Deer 2,327 9 (4.22)  2009-10-13
?After Obama Saves the World... 81,780 818 (4.61)  2009-01-07
?Saturday Mornings with Sartre 1,546 8 (4.25)  2009-01-07
?John McCain Needs Publicity 25,636 484 (4.34)  2008-10-24
?When George Lucas Dreams... 26,286 559 (4.42)  2008-04-27
?The Democratic Destruction 10,252 357 (4.16)  2008-03-29
?Obamanable Snowman - 2008 5,240 141 (3.82)  2008-03-28
?Not For Public Consumption 2,314 44 (1.64)  2008-03-09
?Hillary Clinton gets Easy Questions 34,018 872 (4.30)  2007-12-03
?Arnold's Quaid Game 25,509 550 (4.11)  2007-09-28
?The March of Parisect 3,439 85 (3.26)  2007-09-25
?Alan Grant Has No Class 13,058 247 (3.94)  2007-09-24
?Film Summary - Hitchcock 's North by Nort... 4,419 103 (3.74)  2007-09-24
?(nsfw) Tom Cruise's Cravings 9,308 380 (4.20)  2007-07-26
?That Jurassic Park Adventure 29,586 816 (4.49)  2007-06-16
?28 Stones Later 966 14 (3.71)  2007-06-10
?Indiana Jones' Next Adventure 18,109 444 (4.26)  2007-06-02
?Mr. Oliver Twist Goes to Washington 863 14 (3.79)  2007-05-20
?Doc Ock Loves the 80's 2,523 75 (3.87)  2007-05-15
?Democratic Temptations 1,206 56 (3.75)  2007-04-21
?Chris Rock: Upvoter 6,943 305 (4.10)  2007-04-19
?(nsfw) Dr. Mario's Diagnosis 3,648 133 (3.87)  2007-04-04
?Casting Gandalf 895 8 (3.38)  2007-03-31
?Indiana's Eye-M 2,203 83 (3.92)  2007-03-31
?Sloppy Smorgasbord 5,944 302 (4.02)  2007-03-24
?Jerraptor 2,443 38 (3.71)  2007-03-13
?Natural Election 554 7 (3.57)  2007-03-11
?(nsfw) Sex in the East 8,078 296 (3.93)  2007-03-04
?Metal Gear Idol 31,947 653 (4.33)  2007-03-02
?The Face Comes 796 21 (3.57)  2007-02-24
?The Fountain of Youth is... 11,682 405 (3.97)  2007-02-19
?Adam Carolla Vs. Scientology 13,522 304 (4.12)  2007-02-11
?Rosie's New Manager 5,987 345 (4.39)  2007-02-04
?Duel of Crates 1,115 20 (3.80)  2007-02-03
?The Scientologist's Afterlife 8,157 310 (4.00)  2007-01-27
?Love 4 Turtle Dove 1,457 28 (3.75)  2007-01-27
?It's Lord Myotismon!!! 693 12 (2.83)  2007-01-21
?George Washington's Sexual Revolution 2,469 20 (3.75)  2007-01-10
?Reminder: Wear a Condom 1,079 12 (3.33)  2007-01-08
?I'm Mr. Vein 584 16 (3.44)  2007-01-04
?Dances with Windmills 1,798 27 (4.19)  2006-12-27
?Jocker Jams 823 11 (2.91)  2006-12-24
?Joker Gets Spooky 3,273 20 (3.75)  2006-12-24
?Exposing Age of Mythology 936 13 (3.31)  2006-12-15
?My Girl Solid 3 911 9 (3.44)  2006-12-08
?Skinner's Fiery Deed 5,999 316 (4.02)  2006-12-03
?Yodemo 304 7 (3.71)  2006-11-29
?Fast Food's Circle of Strife 23,414 979 (4.59)  2006-11-23
?Danzig with Wolves 2,255 18 (3.39)  2006-11-22
?Al Gore's "An Inconvenient Truth&quot... 826 12 (3.33)  2006-11-21
?Kamehameha Caterpillar 933 10 (3.20)  2006-11-15
?Velocirackbar Kitchen Infestation 1,994 71 (3.89)  2006-11-08
?Abandoned Bedroom 2,346 40 (4.25)  2006-11-05
?The Island of Iraq 1,276 10 (3.60)  2006-10-31
?Roll Call: Chosen One-01 8,482 498 (4.49)  2006-10-27
?Jurassic Park Gone Kinky - Dry Anal Rape 18,430 86 (4.27)  2006-10-17
?Bob Dole's Inappropriate Erection # 1 1,863 24 (3.63)  2006-10-15
?Homer Expresses Love 22,418 682 (4.24)  2006-10-14
?Is Ned Ryerson Right? 2,896 26 (4.15)  2006-10-14
?The Beauty of Clerks 1,194 17 (3.82)  2006-09-19
?Lincoln Supreme Final Form 2,184 14 (4.07)  2006-09-19
?Gamespot's Greg Kasavin Revealed 482 10 (2.10)  2006-09-19
?Why Brock Keeps His Eyes Closed 958 14 (3.64)  2006-09-12
?Usual Suspects Buy A Car 795 12 (3.67)  2006-08-25
?Link Masters Guitar Hero 20,862 405 (3.99)  2006-08-24
?The Muthaf*ckin Dawn of a New Muthaf*ckin Era 748 13 (3.85)  2006-08-20
?testsetest 1,895 22 (3.14)  2006-08-20
?Link Receives Personal Advice... 701 13 (3.77)  2006-07-23
?This Week on Hack... 779 10 (3.50)  2006-07-23
?What is Tim Allen... 812 11 (2.55)  2006-07-21
?Look Here for the Apartment 394 8 (3.13)  2006-06-20
?The Pope Converts 3,396 22 (3.82)  2006-06-02
?Hindu Gamer Suicide 2,127 26 (1.88)  2006-06-02
?Darth Vader has gone crazy 1,337 60 (2.65)  2006-05-24
?R.I.P. AFI - decemberunderground 1,898 21 (2.86)  2006-05-23
?SlopTit Enters... 533 16 (3.13)  2006-05-01
?Shawshank Gets a New Inmate 2,740 507 (3.57)  2006-05-01
?What'll I Do??? 654 8 (2.88)  2006-02-22
?Brian Peppers Spray 1,186 19 (3.53)  2006-02-21
?World of Warcraft = Awesome Incredible! 7,595 14 (2.86)  2006-02-19
?Dick Cheney Shooting - The Way it Really Happen... 4,529 35 (3.77)  2006-02-17
?Peppers Ann 806 11 (3.55)  2006-02-05
?Brian Peppers Next Life 802 12 (2.83)  2006-02-05
?The Brian Peppers Genetic Tree 996 17 (2.24)  2006-02-04
?Brian Peppers Under the Sea 710 12 (3.17)  2006-02-03
?Brian Peppers is Jeepers Creepers 809 12 (2.67)  2006-02-03
?Bright Eyes Yugi-Oh, Conor Oberst's tr... 2,535 17 (3.18)  2006-01-28
?Homer Simpson Ponders the Mona Lisa - Braces 7,400 43 (4.07)  2006-01-26
?Fabio Goose Disaster 11,577 15 (3.60)  2006-01-12
?South Park Ski Instructor 3,076 20 (3.90)  2006-01-09
?The Vikings Will Go Sailing No More - Culpepper Ti... 2,835 17 (3.88)  2006-01-09
?Office Space - Michael Bolton 3,370 17 (3.35)  2006-01-09
?Half Life Enters the World of Warcraft 5,864 12 (2.33)  2006-01-09
?Half Life Gets A Lesson From Teacher 3,416 20 (3.65)  2006-01-09